STARLINK-32838, 62827

Orbit data source: Space-Track

STARLINK-32838, 62827 is a payload satellite owned by SpaceX/Seattle (US) in LEO that was launched on Fri, 24 Jan 2025 UTC via an FALCON 9 launch vehicle from the Air Force Western Test Range (AFWTR). Payload-class satellites include a variety of spacecraft equipped with specific instruments for various scientific and technological missions. These include communications satellites like Starlink; space stations such as the ISS; scientific satellites like the Hubble; Earth observation satellites from companies like Planet Labs, Umbra, and HawkEye 360; GPS; miniature CubeSats for education and research; and military/defense satellites.

Loading next visibility...
Identifier
62827, 2025-018X
Orbit
LEO
Country
Flag of USUS
Related business
Manufacturer
SpaceX/Seattle
Mission
Operational Commercial Communications
Bus & Motor
STARLINK V2M, Unknown motor
Mass
730 kg wet, ~700 kg dry
Launch date (UTC)
2025-01-24 (9 months ago)
Launch vehicle
FALCON 9
Launch site
Air Force Western Test Range (AFWTR)
Object type
Payload
Rocket body
Debris
Shape & HBR
Box + 2 Pan, 17.7 m
Radar Cross Section
33.884 m², Large (>1 m²)

Expand to show TLE details & history
Last TLE update: 14 hours ago

TLE from 14 hours ago
0 STARLINK-32838
1 62827U 25018X   25286.87114934  .00055371  00000-0  18661-2 0  9996
2 62827  53.1577 233.2693 0001189  87.6345 272.4791 15.30228202 41221
Epoch: 2025-10-13T20:54Z
TLE epoch observation values (Epoch: 2025-10-13T20:54:27.302Z)
Latitude
-0.00012°
Longitude
-103.01226°
Altitude
475.995 km
Speed
7.629 km/s
True Right ascension
15h 33m 04s
True Declination
0° 00' 00"
Sunlit
Object was in daylight at epoch
Visualization orbit readout
Latitude
Unknown
Longitude
Unknown
Altitude
Unknown
Speed
Unknown
Apparent Right ascension
Unknown
Apparent Declination
Unknown
Sunlit
N/A
Visualization observer readout
Local Sidereal Time
05:19:23
Azimuth
Unknown
Elevation
Unknown
Doppler factor
Unknown
Orbital elements
Apogee altitude
476.203 km
Perigee altitude
474.573 km
Semi-major axis
6,853.525 km
Eccentricity
0.00012
Inclination
53.1577°
RAAN
233.2693°
Arg. of periapsis
87.6345°
True anomaly
272.46549°
Mean anomaly
272.4791°
Eccentric anomaly
272.47229°
Mean motion
3.82536 °/min
Orbital period
94.11 mins
BSTAR
0.0018661
Loading maneuver chart data...
Computing Atmospheric mass density...
Loading historical data...
Loading historical data...
Loading historical data...
Loading historical data...
Loading historical data...
Loading historical data...
Loading historical data...

Documentation

Showing up to 5 results
|